Satellite: TSUBAME Catalog number: 40302 Epoch time: 14317.39884528 Element set: 23 Inclination: 097.4661 deg RA of node: 036.6657 deg Eccentricity: 0.0046545 Arg of perigee: 160.7192 deg Mean anomaly: 267.0867 deg Mean motion: 15.09894057 rev/day Decay rate: 1.0320e-04 rev/day^2 Epoch rev: 106 Checksum: 297
/EX